Location: Glendo
(42.5037°N, 105.0248°W)
Time: 03:35:55
(UTC+00:00)

Envisat - Pass Details

Date: 05 February 2022
Orbit: 764 x 765 km, 98.2° (Epoch: 21 May)

Event Time Altitude Azimuth Distance (km) Brightness Sun altitude
Rises 13:06:04 0° 359° (N) 3,241 6.1 -12.1°
Reaches altitude 10° 13:08:49 10° 345° (NNW) 2,310 5.2 -11.6°
Maximum altitude 13:12:38 22° 296° (WNW) 1,635 4.1 -10.9°
Drops below altitude 10° 13:16:26 10° 247° (WSW) 2,300 5.0 -10.2°
Sets 13:19:12 0° 233° (SW) 3,222 5.8 -9.7°
